Location: Gymnasium_Grossenhain
(51.3000°N, 13.5950°E)
Time: 19:31:45
(UTC+01:00)

ARIANE 6 FM1 Upper Stage - Pass Details

Date: 18 October 2024
Orbit: 559 x 596 km, 62.0° (Epoch: 07 November)

Event Time Altitude Azimuth Distance (km) Brightness Sun altitude
Rises 19:04:23 0° 312° (NW) 2,821 7.0 -9.9°
Reaches altitude 10° 19:06:43 10° 319° (NW) 1,925 5.9 -10.3°
Maximum altitude 19:10:54 43° 32° (NNE) 835 3.3 -10.9°
Enters shadow 19:14:07 16° 100° (E) 1,579 4.3 -11.4°
